Rochester, NY

11:56 PM EDT on September 20, 2017 (GMT -0400)
Greater Rochester International

Weather History for KROC - October, 2011

Change the Weather History Date:

Saturday, October 29, 2011

  Actual Average Record
Temperature  
Mean Temperature 38 °F 46 °F  
Max Temperature 43 °F 55 °F 76 °F (1896)
Min Temperature 33 °F 38 °F 20 °F (1940)
Degree Days  
Heating Degree Days 27 19  
Month to date heating degree days 362 414  
Since 1 July heating degree days 457 595  
Cooling Degree Days 0 0  
Month to date cooling degree days 1 0  
Year to date cooling degree days 695 534  
Moisture  
Dew Point 31 °F    
Average Humidity 76    
Maximum Humidity 89    
Minimum Humidity 62    
Precipitation  
Precipitation T in 0.09 in 1.44 in (2012)
Month to date precipitation 5.20 2.55  
Year to date precipitation 35.51 28.53  
Snow  
Snow 0.00 in 0.00 in 1.00 in (1895)
Month to date snowfall T 0.1  
Since 1 July snowfall T 0.1  
Since 1 September snowfall T 0.1  
Snow Depth 0.00 in    
Sea Level Pressure  
Sea Level Pressure 30.15 in    
Wind  
Wind Speed 3 mph (SW)    
Max Wind Speed 9 mph    
Max Gust Speed 12 mph    
Visibility 10 miles    
Events Rain    
T = Trace of Precipitation, MM = Missing Value Source: NWS Daily Summary

Daily Weather History Graph

Daily Weather History Graph

Search for Another Location

Airport or City:

Trip Planner

Search our weather history database for the weather conditions in past years. The results will help you decide how hot, cold, wet, or windy it might be!

Date:

Astronomy

Oct. 29, 2011 Rise Set
Actual Time 7:41 AM EDT 6:06 PM EDT
Civil Twilight 7:11 AM EDT 6:36 PM EDT
Nautical Twilight 6:38 AM EDT 7:09 PM EDT
Astronomical Twilight 6:05 AM EDT 7:42 PM EDT
Moon 11:06 AM EDT (10/29) 8:23 PM EDT (10/29)
Length of Visible Light 11h 24m
Length of Day
10h 25m
Waxing Crescent, 11% of the Moon is Illuminated
Oct 29
Waxing Crescent
Nov 2
First Quarter
Nov 10
Full
Nov 18
Last Quarter
Nov 25
New

Hourly Weather History & Observations

Time (EDT) Temp. Windchill Dew Point Humidity Pressure Visibility Wind Dir Wind Speed Gust Speed Precip Events Conditions
12:54 AM 37.0 °F 34.5 °F 30.0 °F 76% 30.21 in 10.0 mi SSE 3.5 mph - N/A   Overcast
1:54 AM 37.0 °F - 30.9 °F 79% 30.21 in 10.0 mi Calm Calm - N/A   Overcast
2:54 AM 35.1 °F - 30.9 °F 85% 30.20 in 10.0 mi Calm Calm - N/A   Overcast
3:54 AM 35.1 °F - 30.9 °F 85% 30.19 in 10.0 mi Calm Calm - N/A   Overcast
4:54 AM 34.0 °F - 30.0 °F 85% 30.19 in 10.0 mi Calm Calm - N/A   Overcast
5:54 AM 35.1 °F - 30.9 °F 85% 30.18 in 10.0 mi Calm Calm - N/A   Overcast
6:54 AM 34.0 °F - 30.0 °F 85% 30.18 in 10.0 mi Calm Calm - N/A   Overcast
7:54 AM 33.1 °F 30.0 °F 30.0 °F 89% 30.18 in 10.0 mi ESE 3.5 mph - N/A   Overcast
8:54 AM 34.0 °F 31.0 °F 30.9 °F 89% 30.17 in 10.0 mi ESE 3.5 mph - N/A   Overcast
9:54 AM 37.0 °F 32.4 °F 32.0 °F 82% 30.16 in 10.0 mi SE 5.8 mph - N/A   Overcast
10:54 AM 39.0 °F 35.7 °F 33.1 °F 79% 30.16 in 10.0 mi SE 4.6 mph - N/A   Overcast
11:54 AM 39.9 °F 35.1 °F 33.1 °F 77% 30.15 in 10.0 mi SE 6.9 mph - N/A   Overcast
12:54 PM 41.0 °F - 33.1 °F 73% 30.13 in 10.0 mi Calm Calm - N/A   Overcast
1:54 PM 43.0 °F 38.8 °F 30.0 °F 60% 30.12 in 10.0 mi ESE 6.9 mph - N/A   Overcast
2:54 PM 42.1 °F - 30.9 °F 65% 30.10 in 10.0 mi Calm Calm - N/A   Overcast
3:54 PM 42.1 °F - 30.0 °F 62% 30.10 in 10.0 mi Calm Calm - N/A   Overcast
4:54 PM 41.0 °F 38.0 °F 30.9 °F 67% 30.11 in 9.0 mi West 4.6 mph - 0.00 in Rain Light Rain
4:58 PM 41.0 °F 37.1 °F 30.2 °F 65% 30.09 in 10.0 mi West 5.8 mph - 0.00 in   Overcast
5:54 PM 39.0 °F 36.8 °F 30.9 °F 73% 30.12 in 10.0 mi West 3.5 mph - 0.00 in   Overcast
6:54 PM 39.0 °F 34.8 °F 30.9 °F 73% 30.12 in 10.0 mi NW 5.8 mph - N/A   Overcast
7:54 PM 37.9 °F 33.5 °F 30.0 °F 73% 30.12 in 10.0 mi NW 5.8 mph - N/A   Overcast
8:54 PM 37.0 °F 31.6 °F 30.0 °F 76% 30.12 in 10.0 mi WNW 6.9 mph - N/A   Mostly Cloudy
9:54 PM 37.0 °F 31.6 °F 30.9 °F 79% 30.12 in 10.0 mi NW 6.9 mph - N/A   Mostly Cloudy
10:54 PM 37.0 °F 31.6 °F 30.9 °F 79% 30.12 in 10.0 mi NW 6.9 mph - N/A   Overcast
11:54 PM 37.0 °F - 32.0 °F 82% 30.12 in 10.0 mi Calm Calm - N/A   Mostly Cloudy